[[{"header":{"parameterUnit":"m.s-1","parameterCategory":1,"la1":30.2991,"la2":30.254,"lo1":-89.0895,"lo2":-89.0444,"dy":0.0017,"dx":0.0017,"nx":28,"ny":28,"refTime":"2024-07-01T03:00:00:Z","depth":0,"parameterNumber":2,"parameterNumberName":"U-component_of_WINDS"},"data":[0,0,0,0,0,0,0,0,0,0,0,0,0,0,0,0,0,0,0,0,0,0,0,0,0,0,0,0,0,0,0,0,0,0,0,0,0,0,0,0,0,0,0,0,0,0,0,0,0,0,0,0,0,0,0,0,0,0,1.8921,1.8922,0,1.9058,1.9059,1.9061,1.9033,1.9031,1.9028,1.9026,1.9172,1.9178,1.9184,0,0,0,0,0,0,0,0,0,0,0,0,0,1.8641,1.8646,1.8921,1.8923,1.8924,1.9058,1.906,1.9061,1.9034,1.9031,1.9028,1.9025,1.917,1.9177,1.9185,0,0,0,0,0,0,0,0,0,0,0,0,0,1.8769,1.8648,1.8921,1.8926,1.8928,1.9057,1.906,1.9062,1.9034,1.9031,1.9027,1.9023,1.9167,1.9176,1.9186,1.9319,0,0,1.9214,1.9218,0,0,0,0,0,0,0,0,1.8761,1.8779,1.8924,1.8926,1.8928,1.9024,1.9014,1.9148,1.9035,1.8994,1.9026,1.9021,1.9126,1.9139,1.9173,1.9326,1.9332,1.9215,1.9221,1.9225,1.9227,0,0,0,0,0,0,0,1.8753,1.8773,1.8975,1.8926,1.8929,1.8924,1.8938,1.904,1.908,1.8998,1.8996,1.9012,1.9127,1.9164,1.9176,1.9334,1.9215,1.9223,1.9229,1.9233,1.9604,1.9608,0,0,0,0,0,0,1.8741,1.8766,1.8971,1.8979,1.8834,1.8932,1.8948,1.8998,1.9079,1.9087,1.9015,1.901,1.915,1.9165,1.9181,1.9343,1.9225,1.9234,1.9239,1.96,1.9605,1.961,0,0,0,0,0,0,1.8735,1.8759,1.8965,1.8872,1.8898,1.8941,1.8997,1.9002,1.9039,1.9092,1.91,1.9045,1.9147,1.9168,1.9285,1.9347,1.9238,1.9246,1.9595,1.9602,1.9608,1.9667,0,0,0,0,0,0,1.8727,1.8757,1.8807,1.8873,1.8903,1.9065,1.9001,1.9008,1.9055,1.905,1.9122,1.9131,1.9146,1.9271,1.9294,1.9358,1.9254,1.959,1.9598,1.9606,1.966,1.9675,1.9688,0,0,0,0,0,1.8717,1.882,1.881,1.8835,1.8966,1.9069,1.9086,1.91,1.906,1.9111,1.9145,1.9128,1.9337,1.9283,1.9309,1.9377,1.9586,1.9596,1.9605,1.9653,1.9672,1.9687,0,0,0,0,0,0,1.8762,1.8829,1.8818,1.8945,1.9001,1.9064,1.9129,1.9119,1.9189,1.9181,1.9197,1.9214,1.9333,1.9367,1.9306,1.9511,1.9456,1.9471,1.9484,1.9502,1.9515,1.9505,1.9261,0,0,0,0,0,1.8787,1.8863,1.8917,1.9024,1.9053,1.9086,1.9131,1.9137,1.9197,1.9221,1.9263,1.9323,1.9402,1.9454,1.9529,1.9664,1.968,1.9724,1.9738,1.9749,1.9762,1.9837,1.9857,1.9641,1.9641,1.9641,0,0,1.8839,1.8884,1.8932,1.9034,1.9078,1.9159,1.9106,1.9193,1.9253,1.9235,1.9347,1.938,1.9448,1.9574,1.9632,1.9607,1.9825,1.9761,1.977,1.9777,1.9848,1.9869,1.9887,1.9648,1.9647,1.9646,0,0,1.8974,1.9016,1.9109,1.9154,1.922,1.9242,1.9264,1.9329,1.9349,1.9462,1.9449,1.9522,1.9657,1.9706,1.9749,1.9902,1.989,1.9927,2.0,2.0072,2.0089,2.0104,2.0159,2.0178,1.994,1.994,1.994,0,1.903,1.9148,1.9159,1.9247,1.9293,1.9277,1.9373,1.9417,1.9506,1.9538,1.9508,1.9677,1.9722,1.986,1.9897,1.9932,1.9959,1.9919,2.0085,2.01,2.0115,2.0167,2.0188,1.9944,1.9943,1.9943,1.9943,0,1.9215,1.9297,1.9365,1.9449,1.9502,1.9594,1.962,1.9673,1.9674,1.9699,1.9815,1.9868,1.9953,1.9987,1.999,2.0125,2.0107,2.0081,2.0026,2.0139,2.0189,2.0209,1.995,1.9948,1.9947,1.9946,0,0,1.9383,1.947,1.9495,1.9533,1.9605,1.967,1.9761,1.9843,1.9889,1.9951,2.0028,2.0143,2.0119,2.0168,2.0176,2.0239,2.0357,2.0205,2.0207,2.0232,2.0511,2.053,2.0553,2.0349,2.0353,2.0356,2.0505,0,1.9525,1.9683,1.9695,1.9839,1.9915,1.9902,1.9981,2.0035,2.0062,2.0132,2.0161,2.0242,2.0204,2.0233,2.0295,2.033,2.0414,2.0319,2.0423,2.0427,2.0406,2.0579,2.06,2.0737,2.0524,2.0528,2.053,0,1.9711,1.9776,1.9927,1.9988,2.0021,2.0092,2.0168,2.0235,2.0296,2.0311,2.0364,2.0364,2.0459,2.0401,2.0533,2.0469,2.0512,2.0535,2.0541,2.0552,2.0485,2.0594,2.0782,2.0802,2.0561,2.0558,2.0556,0,1.9819,1.9944,2.0051,2.0083,2.0157,2.0208,2.0241,2.0298,2.0347,2.0414,2.0446,2.0524,2.0568,2.0629,2.065,2.0606,2.0782,2.0725,2.0798,2.0798,2.0836,2.0833,2.1033,2.0864,2.0863,2.0863,2.0863,0,1.9976,2.0069,2.01,2.0165,2.0269,2.0283,2.0386,2.0417,2.0468,2.0541,2.0534,2.0603,2.0627,2.07,2.0717,2.0824,2.0844,2.086,2.0863,2.086,2.0858,2.0889,2.088,2.0869,2.0867,2.0866,2.0865,0,2.0114,2.0138,2.0253,2.0313,2.033,2.0404,2.0456,2.052,2.0544,2.0636,2.0659,2.0698,2.0784,2.0811,2.0915,2.0927,2.1052,2.1047,2.1031,2.1031,2.1102,2.1095,2.1329,2.1361,2.117,2.1172,2.1174,0,2.0212,2.0283,2.035,2.0397,2.0432,2.0508,2.0557,2.0573,2.0625,2.07,2.0755,2.0839,2.0907,2.1045,2.1084,2.1164,2.1161,2.1238,2.1173,2.1168,2.1163,2.1158,2.1165,2.125,2.1252,2.1253,2.1255,0,2.0385,2.0393,2.0463,2.0537,2.0595,2.0654,2.0712,2.0751,2.0776,2.0835,2.0921,2.0974,2.1079,2.1163,2.1244,2.1281,2.1273,2.1274,2.1295,2.1293,2.1281,2.1289,2.1064,2.1269,2.1268,2.1267,2.1266,2.1265,2.0506,2.0568,2.0625,2.0703,2.0747,2.0801,2.0864,2.0895,2.0967,2.1052,2.1058,2.1152,2.1212,2.1319,2.136,2.1434,2.1413,2.1443,2.1451,2.1458,2.1464,2.1268,2.1449,2.1449,2.1449,2.1448,2.1448,0,2.0679,2.0714,2.0785,2.0865,2.0926,2.0911,2.0974,2.1027,2.1109,2.1164,2.1231,2.133,2.1412,2.1457,2.1539,2.159,2.1588,2.1611,2.1607,2.1616,2.1479,2.1452,2.1611,2.1611,2.1611,2.1611,2.1611,2.1611,2.0776,2.088,2.0895,2.1021,2.1057,2.1146,2.1184,2.1234,2.1278,2.1389,2.1455,2.1483,2.1536,2.1621,2.1695,2.1707,2.1737,2.1762,2.1772,2.1642,2.1626,2.161,2.1585,2.1769,2.1769,2.1903,2.1904,2.1905]},{"header":{"parameterUnit":"m.s-1","parameterCategory":1,"la1":30.2991,"la2":30.254,"lo1":-89.0895,"lo2":-89.0444,"dy":0.0017,"dx":0.0017,"nx":28,"ny":28,"refTime":"2024-07-01T03:00:00:Z","depth":0,"parameterNumber":3,"parameterNumberName":"V-component_of_WINDS"},"data":[0,0,0,0,0,0,0,0,0,0,0,0,0,0,0,0,0,0,0,0,0,0,0,0,0,0,0,0,0,0,0,0,0,0,0,0,0,0,0,0,0,0,0,0,0,0,0,0,0,0,0,0,0,0,0,0,0,0,1.2061,1.2062,0,1.2114,1.2115,1.2115,1.2099,1.2098,1.2097,1.2096,1.2148,1.215,1.2153,0,0,0,0,0,0,0,0,0,0,0,0,0,1.1944,1.1946,1.2061,1.2062,1.2062,1.2114,1.2115,1.2115,1.2099,1.2098,1.2096,1.2095,1.2147,1.215,1.2153,0,0,0,0,0,0,0,0,0,0,0,0,0,1.1995,1.1947,1.2061,1.206,1.2061,1.2114,1.2115,1.2116,1.2099,1.2098,1.2096,1.2094,1.2146,1.215,1.2153,1.2209,0,0,1.2164,1.2166,0,0,0,0,0,0,0,0,1.1993,1.2,1.206,1.2061,1.2061,1.2098,1.2093,1.2147,1.21,1.2085,1.2096,1.2094,1.2133,1.2137,1.2151,1.2212,1.2214,1.2165,1.2167,1.2169,1.217,0,0,0,0,0,0,0,1.1989,1.1997,1.2082,1.2061,1.2062,1.2057,1.2062,1.2103,1.2117,1.2086,1.2085,1.2091,1.2133,1.2147,1.2152,1.2215,1.2165,1.2168,1.217,1.2172,1.2324,1.2326,0,0,0,0,0,0,1.1985,1.1995,1.208,1.2084,1.2022,1.206,1.2067,1.2088,1.2117,1.212,1.2093,1.209,1.2142,1.2148,1.2154,1.2221,1.2168,1.2172,1.2174,1.2322,1.2324,1.2326,0,0,0,0,0,0,1.1983,1.1993,1.2078,1.2039,1.2049,1.2064,1.2088,1.209,1.2105,1.2122,1.2124,1.2105,1.2141,1.2149,1.2196,1.2223,1.2174,1.2177,1.232,1.2323,1.2325,1.2357,0,0,0,0,0,0,1.1979,1.1992,1.2014,1.2039,1.2051,1.212,1.209,1.2092,1.2111,1.2109,1.2134,1.2137,1.214,1.219,1.2199,1.2227,1.218,1.2318,1.2321,1.2325,1.2353,1.236,1.2366,0,0,0,0,0,1.1975,1.202,1.2015,1.2026,1.2079,1.2122,1.2128,1.2132,1.2113,1.2135,1.2146,1.2136,1.2218,1.2195,1.2205,1.2234,1.2316,1.232,1.2324,1.235,1.2359,1.2366,0,0,0,0,0,0,1.1997,1.2024,1.2018,1.2073,1.2095,1.2119,1.2146,1.214,1.2168,1.2164,1.2166,1.2172,1.222,1.2232,1.2206,1.229,1.2264,1.2271,1.2281,1.2289,1.2295,1.2291,1.2183,0,0,0,0,0,1.2008,1.2041,1.2062,1.2108,1.212,1.2131,1.215,1.2151,1.2173,1.2182,1.2197,1.2219,1.225,1.227,1.2299,1.2355,1.236,1.238,1.2386,1.2391,1.2397,1.2427,1.2436,1.234,1.234,1.234,0,0,1.2032,1.205,1.2071,1.2113,1.2131,1.2164,1.2139,1.2176,1.22,1.2188,1.2233,1.2245,1.2269,1.2321,1.2345,1.2332,1.2424,1.2397,1.2401,1.2403,1.2432,1.2441,1.2449,1.2343,1.2343,1.2342,0,0,1.2092,1.2109,1.215,1.2168,1.2194,1.2202,1.2211,1.2236,1.2243,1.2289,1.2281,1.2309,1.2362,1.238,1.2396,1.2463,1.2455,1.2472,1.2506,1.2535,1.2543,1.255,1.2573,1.2582,1.2478,1.2478,1.2478,0,1.2117,1.2168,1.2171,1.2208,1.2227,1.2218,1.2259,1.2276,1.231,1.2323,1.2309,1.2376,1.2391,1.2447,1.2464,1.2477,1.2488,1.247,1.2542,1.2548,1.2555,1.2578,1.2586,1.248,1.248,1.248,1.2479,0,1.2198,1.2233,1.2263,1.2297,1.2319,1.2358,1.2367,1.2388,1.2387,1.2396,1.2442,1.2461,1.2494,1.2507,1.2506,1.2563,1.2555,1.2541,1.2515,1.2566,1.2587,1.2596,1.2483,1.2482,1.2482,1.2481,0,0,1.2273,1.2309,1.232,1.2336,1.2364,1.2391,1.243,1.2463,1.2481,1.2505,1.2537,1.2582,1.257,1.2588,1.2589,1.2615,1.2666,1.2598,1.2599,1.261,1.273,1.274,1.2751,1.2661,1.2663,1.2664,1.2728,0,1.2335,1.2404,1.2408,1.2469,1.2501,1.2493,1.2526,1.2547,1.2556,1.2585,1.2594,1.2626,1.2608,1.2619,1.2644,1.2655,1.2691,1.265,1.269,1.2692,1.2685,1.2762,1.2773,1.2832,1.2737,1.2738,1.2739,0,1.2417,1.2445,1.251,1.2534,1.2548,1.2578,1.2609,1.2636,1.2659,1.2664,1.2685,1.2682,1.272,1.2693,1.2746,1.2718,1.2735,1.2743,1.2745,1.2749,1.2719,1.2768,1.2852,1.2861,1.2752,1.2751,1.275,0,1.2466,1.2519,1.2565,1.2578,1.2608,1.2629,1.2643,1.2664,1.2684,1.271,1.2723,1.2753,1.277,1.2793,1.2798,1.2778,1.2851,1.2824,1.2855,1.2855,1.2871,1.287,1.2959,1.2882,1.2881,1.2881,1.2881,0,1.2535,1.2575,1.2587,1.2615,1.266,1.2664,1.2707,1.2719,1.2739,1.2768,1.2763,1.2791,1.2795,1.2824,1.2828,1.2871,1.2879,1.2883,1.2884,1.2884,1.2883,1.2895,1.2891,1.2884,1.2883,1.2883,1.2882,0,1.2597,1.2606,1.2656,1.268,1.2687,1.2719,1.2739,1.2766,1.2774,1.2812,1.2821,1.2834,1.2868,1.2875,1.2915,1.2917,1.2969,1.2965,1.2961,1.2961,1.2992,1.2989,1.3091,1.3105,1.3018,1.3019,1.302,0,1.264,1.2671,1.2699,1.2719,1.2733,1.2766,1.2786,1.2791,1.2812,1.2841,1.2864,1.2897,1.2924,1.2978,1.2991,1.3021,1.3018,1.3052,1.3022,1.3022,1.3019,1.3017,1.302,1.3057,1.3058,1.3059,1.306,0,1.2717,1.272,1.275,1.2782,1.2806,1.2831,1.2855,1.2871,1.2879,1.2903,1.2938,1.2959,1.3,1.3032,1.3063,1.3075,1.3069,1.3069,1.3078,1.3078,1.3075,1.3077,1.2977,1.3066,1.3066,1.3065,1.3065,1.3065,1.2771,1.2798,1.2822,1.2855,1.2874,1.2896,1.2923,1.2935,1.2964,1.2998,1.2999,1.3037,1.3059,1.31,1.3114,1.3144,1.3133,1.3146,1.3149,1.3152,1.3155,1.307,1.3149,1.3149,1.3149,1.3149,1.3148,0,1.2847,1.2862,1.2893,1.2927,1.2953,1.2945,1.2971,1.2993,1.3027,1.3049,1.3076,1.3116,1.3148,1.3163,1.3194,1.3215,1.3212,1.3223,1.3221,1.3224,1.3163,1.3152,1.3224,1.3224,1.3224,1.3224,1.3224,1.3224,1.289,1.2935,1.2942,1.2996,1.3011,1.3049,1.3064,1.3084,1.3102,1.3147,1.3174,1.3184,1.3203,1.3236,1.3265,1.3268,1.328,1.3292,1.3294,1.3236,1.3229,1.3221,1.3211,1.3294,1.3295,1.3353,1.3354,1.3354]}]]